When you browse on this site, cookies collect data to enhance your experience and personalize the content and advertising you see.
Visit our Privacy Policy to learn more. By continuing to use the site, you agree to this use of cookies and data.
  • In Hungary
  • List of Countries
  • For 7 days
  • Water Temperature
  • Satellite Maps
  • Weather Map
  • News
  • Weather Widgets
  • user-avatar
    Login

    Hourly Weather Bodzow

    Today, 26 May, Sunday

    Time Temperature Precipitation Wind Pressure Humidity
    00:00 +10°C° 0 mm 1 mps 752 mmHg 89%
    01:00 +10°C° 0 mm 1 mps 752 mmHg 91%
    02:00 +9°C° 0 mm 1 mps 752 mmHg 93%
    03:00 +8°C° 0 mm 2 mps 752 mmHg 94%
    04:00 +7°C° 0 mm 2 mps 752 mmHg 95%
    05:00 +9°C° 0 mm 2 mps 752 mmHg 87%
    06:00 +11°C° 0 mm 3 mps 752 mmHg 80%
    07:00 +12°C° 0 mm 3 mps 752 mmHg 73%
    08:00 +14°C° 0 mm 3 mps 752 mmHg 67%
    09:00 +17°C° 0 mm 3 mps 751 mmHg 61%
    10:00 +18°C° 0 mm 4 mps 751 mmHg 54%
    11:00 +20°C° 0 mm 4 mps 751 mmHg 51%
    12:00 +21°C° 0 mm 5 mps 750 mmHg 47%
    13:00 +22°C° 0 mm 5 mps 750 mmHg 44%
    14:00 +22°C° 0 mm 5 mps 750 mmHg 44%
    15:00 +23°C° 0 mm 5 mps 749 mmHg 45%
    16:00 +23°C° 0 mm 5 mps 749 mmHg 46%
    17:00 +22°C° 0 mm 4 mps 749 mmHg 52%
    18:00 +20°C° 0 mm 3 mps 749 mmHg 58%
    19:00 +19°C° 0 mm 2 mps 749 mmHg 65%
    20:00 +18°C° 0 mm 2 mps 749 mmHg 68%
    21:00 +17°C° 0 mm 2 mps 749 mmHg 71%
    22:00 +16°C° 0 mm 2 mps 749 mmHg 74%
    23:00 +16°C° 0 mm 2 mps 748 mmHg 76%

    Tomorrow, 27 May, Monday

    Time Temperature Precipitation Wind Pressure Humidity
    00:00 +16°C° 0 mm 3 mps 748 mmHg 78%
    01:00 +14°C° 0 mm 3 mps 748 mmHg 81%
    02:00 +14°C° 0 mm 3 mps 748 mmHg 81%
    03:00 +14°C° 0 mm 3 mps 748 mmHg 80%
    04:00 +14°C° 0 mm 3 mps 747 mmHg 80%
    05:00 +15°C° 0 mm 4 mps 747 mmHg 76%
    06:00 +17°C° 0 mm 4 mps 747 mmHg 71%
    07:00 +19°C° 0 mm 5 mps 747 mmHg 66%
    08:00 +20°C° 0 mm 5 mps 747 mmHg 63%
    09:00 +22°C° 0 mm 5 mps 747 mmHg 60%
    10:00 +23°C° 0 mm 5 mps 747 mmHg 57%
    11:00 +23°C° 0.7 mm 5 mps 747 mmHg 60%
    12:00 +23°C° 0.7 mm 5 mps 747 mmHg 63%
    13:00 +23°C° 0.7 mm 5 mps 747 mmHg 67%
    14:00 +23°C° 0.4 mm 5 mps 747 mmHg 65%
    15:00 +23°C° 0.4 mm 4 mps 747 mmHg 64%
    16:00 +24°C° 0.4 mm 3 mps 747 mmHg 62%
    17:00 +22°C° 0.1 mm 3 mps 747 mmHg 65%
    18:00 +20°C° 0.1 mm 2 mps 747 mmHg 67%
    19:00 +19°C° 0.1 mm 2 mps 747 mmHg 70%
    20:00 +18°C° 0 mm 2 mps 747 mmHg 73%
    21:00 +16°C° 0 mm 2 mps 747 mmHg 77%
    22:00 +15°C° 0 mm 2 mps 747 mmHg 80%
    23:00 +13°C° 0 mm 3 mps 747 mmHg 80%

    Day after tomorrow, 28 May, Tuesday

    Time Temperature Precipitation Wind Pressure Humidity
    00:00 +13°C° 0 mm 3 mps 747 mmHg 81%
    01:00 +13°C° 0 mm 3 mps 746 mmHg 81%
    02:00 +13°C° 0.8 mm 3 mps 746 mmHg 86%
    03:00 +13°C° 0.8 mm 3 mps 745 mmHg 90%
    04:00 +12°C° 0.8 mm 3 mps 745 mmHg 95%
    05:00 +12°C° 2.9 mm 4 mps 744 mmHg 95%
    06:00 +12°C° 2.9 mm 4 mps 744 mmHg 95%
    07:00 +12°C° 2.9 mm 4 mps 744 mmHg 95%
    08:00 +12°C° 3 mm 4 mps 744 mmHg 95%
    09:00 +11°C° 3 mm 4 mps 744 mmHg 95%
    10:00 +11°C° 3 mm 4 mps 744 mmHg 95%
    11:00 +11°C° 2.2 mm 4 mps 744 mmHg 95%
    12:00 +11°C° 2.2 mm 4 mps 744 mmHg 95%
    13:00 +11°C° 2.2 mm 4 mps 744 mmHg 94%
    14:00 +11°C° 0.8 mm 4 mps 744 mmHg 94%
    15:00 +11°C° 0.8 mm 3 mps 744 mmHg 93%
    16:00 +11°C° 0.8 mm 3 mps 744 mmHg 92%
    17:00 +12°C° 0.1 mm 2 mps 745 mmHg 92%
    18:00 +12°C° 0.1 mm 2 mps 745 mmHg 92%
    19:00 +12°C° 0.1 mm 1 mps 745 mmHg 92%
    20:00 +12°C° 0 mm 1 mps 745 mmHg 93%
    21:00 +11°C° 0 mm 1 mps 746 mmHg 94%
    22:00 +11°C° 0 mm 1 mps 746 mmHg 95%
    23:00 +10°C° 0 mm 1 mps 746 mmHg 95%

    29 May, Wednesday

    Time Temperature Precipitation Wind Pressure Humidity
    00:00 +10°C° 0 mm 1 mps 746 mmHg 95%
    01:00 +9°C° 0 mm 1 mps 746 mmHg 95%
    02:00 +9°C° 0 mm 1 mps 746 mmHg 95%
    03:00 +9°C° 0 mm 1 mps 746 mmHg 94%
    04:00 +9°C° 0 mm 1 mps 747 mmHg 94%
    05:00 +10°C° 0 mm 1 mps 747 mmHg 91%
    06:00 +12°C° 0 mm 2 mps 747 mmHg 88%
    07:00 +13°C° 0 mm 2 mps 748 mmHg 85%
    08:00 +14°C° 0.2 mm 2 mps 748 mmHg 84%
    09:00 +15°C° 0.2 mm 2 mps 748 mmHg 82%
    10:00 +16°C° 0.2 mm 3 mps 748 mmHg 80%
    11:00 +17°C° 0.5 mm 3 mps 748 mmHg 77%
    12:00 +17°C° 0.5 mm 3 mps 749 mmHg 74%
    13:00 +18°C° 0.5 mm 3 mps 749 mmHg 71%
    14:00 +17°C° 0.6 mm 3 mps 749 mmHg 74%
    15:00 +17°C° 0.6 mm 3 mps 749 mmHg 77%
    16:00 +16°C° 0.6 mm 3 mps 750 mmHg 80%
    17:00 +14°C° 0.3 mm 4 mps 750 mmHg 83%
    18:00 +13°C° 0.3 mm 4 mps 751 mmHg 86%
    19:00 +12°C° 0.3 mm 4 mps 751 mmHg 89%
    20:00 +11°C° 0 mm 3 mps 752 mmHg 90%
    21:00 +10°C° 0 mm 3 mps 752 mmHg 91%
    22:00 +9°C° 0 mm 3 mps 753 mmHg 92%
    23:00 +8°C° 0 mm 2 mps 754 mmHg 91%

    30 May, Thursday

    Time Temperature Precipitation Wind Pressure Humidity
    00:00 +7°C° 0 mm 2 mps 754 mmHg 91%
    01:00 +6°C° 0 mm 2 mps 754 mmHg 91%
    02:00 +6°C° 0 mm 2 mps 755 mmHg 91%
    03:00 +6°C° 0 mm 2 mps 755 mmHg 92%
    04:00 +6°C° 0 mm 2 mps 756 mmHg 92%
    05:00 +8°C° 0 mm 1 mps 756 mmHg 87%
    06:00 +10°C° 0 mm 1 mps 756 mmHg 81%
    07:00 +12°C° 0 mm 1 mps 757 mmHg 75%
    08:00 +13°C° 0 mm 1 mps 757 mmHg 68%
    09:00 +15°C° 0 mm 1 mps 757 mmHg 60%
    10:00 +18°C° 0 mm 1 mps 757 mmHg 53%
    11:00 +18°C° 0 mm 1 mps 757 mmHg 52%
    12:00 +19°C° 0 mm 1 mps 756 mmHg 51%
    13:00 +19°C° 0 mm 1 mps 756 mmHg 49%
    14:00 +19°C° 0.1 mm 1 mps 756 mmHg 51%
    15:00 +19°C° 0.1 mm 1 mps 756 mmHg 53%
    16:00 +19°C° 0.1 mm 2 mps 756 mmHg 55%
    17:00 +18°C° 0.1 mm 2 mps 755 mmHg 61%
    18:00 +17°C° 0.1 mm 2 mps 755 mmHg 68%
    19:00 +16°C° 0.1 mm 2 mps 755 mmHg 74%
    20:00 +15°C° 0 mm 2 mps 755 mmHg 77%
    21:00 +13°C° 0 mm 3 mps 755 mmHg 79%
    22:00 +12°C° 0 mm 3 mps 755 mmHg 82%
    23:00 +12°C° 0 mm 3 mps 755 mmHg 80%

    31 May, Friday

    Time Temperature Precipitation Wind Pressure Humidity
    00:00 +12°C° 0 mm 3 mps 755 mmHg 78%
    01:00 +12°C° 0 mm 3 mps 755 mmHg 76%
    02:00 +12°C° 0 mm 3 mps 754 mmHg 80%
    03:00 +12°C° 0 mm 4 mps 754 mmHg 83%
    04:00 +12°C° 0 mm 4 mps 754 mmHg 86%
    05:00 +13°C° 0.1 mm 5 mps 754 mmHg 86%
    06:00 +14°C° 0.1 mm 5 mps 754 mmHg 85%
    07:00 +14°C° 0.1 mm 6 mps 754 mmHg 84%
    08:00 +14°C° 0.9 mm 5 mps 755 mmHg 86%
    09:00 +14°C° 0.9 mm 5 mps 755 mmHg 89%
    10:00 +14°C° 0.9 mm 5 mps 756 mmHg 92%
    11:00 +14°C° 0.2 mm 5 mps 756 mmHg 84%
    12:00 +15°C° 0.2 mm 4 mps 757 mmHg 76%
    13:00 +17°C° 0.2 mm 4 mps 757 mmHg 67%
    14:00 +17°C° 0 mm 4 mps 758 mmHg 60%
    15:00 +18°C° 0 mm 4 mps 758 mmHg 52%
    16:00 +19°C° 0 mm 4 mps 759 mmHg 44%
    17:00 +17°C° 0 mm 3 mps 759 mmHg 49%
    18:00 +16°C° 0 mm 2 mps 759 mmHg 54%
    19:00 +15°C° 0 mm 1 mps 760 mmHg 59%
    20:00 +14°C° 0 mm 1 mps 760 mmHg 61%
    21:00 +12°C° 0 mm 1 mps 760 mmHg 64%
    22:00 +11°C° 0 mm 1 mps 761 mmHg 66%
    23:00 +10°C° 0 mm 1 mps 761 mmHg 68%
    Show more